sat.trackr.live / text

‹ back to catalog

STARLINK-35340

NORAD 66022 · 2025-232T

PAYLOAD ACTIVE UNKNOWN

§ Identity

Operator
Country
US
Launch date
2025-10-16
Launch site
AFETR
Launch vehicle
Mass (kg)
RCS (m²)

Purposes: comms

External: N2YO · Heavens-Above · Gunter

§ Orbital elements

Epoch: 2026-05-25T03:34:01.142976Z

Period
94.11 min
Inclination
53.1607°
Eccentricity
0.0001326
Mean motion
15.30195300 rev/d
Perigee alt
474.3 km
Apogee alt
476.1 km
Semi-major
6,853.4 km
B*
2.3019e-4
RAAN
108.6272°
Arg perigee
95.1988°
Mean anomaly
264.9164°
Rev number
3,514

§ Raw data

STARLINK-353401 66022U 25232T   26145.14862434  .00006463  00000+0  23019-3 0  99962 66022  53.1607 108.6272 0001326  95.1988 264.9164 15.30195300 35140

JSON: /api/v1/satellites/66022 · /tle

For live sub-satellite position, see the globe view (requires WebGL).

§ Visibility from observer

Set your observer location to see the next 7 days of passes ≥ 10°. The values pass through the URL so the page stays shareable.

No JS? Fill the form by hand. The geolocation button needs JavaScript.